Time,TemperatureF,DewpointF,PressureIn,WindDirection,WindDirectionDegrees,WindSpeedMPH,WindSpeedGustMPH,Humidity,HourlyPrecipIn,Conditions,Clouds,dailyrainin,SoftwareType,DateUTC
2013-08-19 00:01:00,64.9,63.2,29.47,NW,315,0.0,1.0,94,0.00,,---,0.00,VWS V14.00,2013-08-19 05:01:00,
2013-08-19 00:06:00,64.9,63.2,29.47,NW,315,0.0,1.0,94,0.00,,---,0.00,VWS V14.00,2013-08-19 05:06:00,
2013-08-19 00:11:00,64.9,63.2,29.47,NW,315,0.0,1.0,94,0.00,,---,0.00,VWS V14.00,2013-08-19 05:11:00,
2013-08-19 00:16:00,64.9,63.2,29.47,NW,315,0.0,1.0,94,0.00,,---,0.00,VWS V14.00,2013-08-19 05:16:00,
2013-08-19 00:21:00,64.9,63.2,29.47,NW,315,0.0,1.0,94,0.00,,---,0.00,VWS V14.00,2013-08-19 05:21:00,
2013-08-19 00:26:00,64.8,63.0,29.47,NW,316,0.0,1.0,94,0.00,,---,0.00,VWS V14.00,2013-08-19 05:26:00,
2013-08-19 00:31:00,64.8,63.0,29.47,NW,315,0.0,1.0,94,0.00,,---,0.00,VWS V14.00,2013-08-19 05:31:00,
2013-08-19 00:36:00,64.8,63.0,29.47,NW,315,0.0,1.0,94,0.00,,---,0.00,VWS V14.00,2013-08-19 05:36:00,
2013-08-19 00:41:00,64.8,63.0,29.47,NW,315,0.0,1.0,94,0.00,,---,0.00,VWS V14.00,2013-08-19 05:41:00,
2013-08-19 00:46:00,64.6,63.1,29.47,NW,315,0.0,1.0,95,0.00,,---,0.00,VWS V14.00,2013-08-19 05:46:00,
2013-08-19 00:51:00,64.6,63.1,29.47,NW,315,0.0,1.0,95,0.00,,---,0.00,VWS V14.00,2013-08-19 05:51:00,
2013-08-19 00:56:00,64.4,62.9,29.47,NW,315,0.0,1.0,95,0.00,,---,0.00,VWS V14.00,2013-08-19 05:56:00,
2013-08-19 01:01:00,64.4,62.9,29.47,NW,315,0.0,1.0,95,0.00,,---,0.00,VWS V14.00,2013-08-19 06:01:00,
2013-08-19 01:06:00,64.4,62.9,29.47,NW,315,0.0,1.0,95,0.00,,---,0.00,VWS V14.00,2013-08-19 06:06:00,
2013-08-19 01:11:00,64.2,62.8,29.47,NW,315,0.0,1.0,95,0.00,,---,0.00,VWS V14.00,2013-08-19 06:11:00,
2013-08-19 01:16:00,64.0,62.6,29.47,NW,315,0.0,1.0,95,0.00,,---,0.00,VWS V14.00,2013-08-19 06:16:00,
2013-08-19 01:21:00,64.2,62.8,29.47,NW,315,0.0,1.0,95,0.00,,---,0.00,VWS V14.00,2013-08-19 06:21:00,
2013-08-19 01:26:00,64.2,62.8,29.47,NW,315,0.0,1.0,95,0.00,,---,0.00,VWS V14.00,2013-08-19 06:26:00,
2013-08-19 01:31:00,64.2,62.8,29.47,NW,315,0.0,1.0,95,0.00,,---,0.00,VWS V14.00,2013-08-19 06:31:00,
2013-08-19 01:36:00,64.2,62.8,29.47,NW,316,0.0,1.0,95,0.00,,---,0.00,VWS V14.00,2013-08-19 06:36:00,
2013-08-19 01:41:00,64.2,63.1,29.47,NW,315,0.0,1.0,96,0.00,,---,0.00,VWS V14.00,2013-08-19 06:41:00,
2013-08-19 01:46:00,64.0,62.9,29.47,NW,315,0.0,1.0,96,0.00,,---,0.00,VWS V14.00,2013-08-19 06:46:00,
2013-08-19 01:51:00,64.0,62.9,29.47,NW,315,0.0,1.0,96,0.00,,---,0.00,VWS V14.00,2013-08-19 06:51:00,
2013-08-19 01:56:00,63.9,62.7,29.47,NW,315,0.0,1.0,96,0.00,,---,0.00,VWS V14.00,2013-08-19 06:56:00,
2013-08-19 02:01:00,63.9,62.7,29.47,NW,315,0.0,1.0,96,0.00,,---,0.00,VWS V14.00,2013-08-19 07:01:00,
2013-08-19 02:06:00,63.9,62.7,29.47,NW,315,0.0,1.0,96,0.00,,---,0.00,VWS V14.00,2013-08-19 07:06:00,
2013-08-19 02:11:00,64.0,62.9,29.47,NNE,31,0.0,1.0,96,0.00,,---,0.00,VWS V14.00,2013-08-19 07:11:00,
2013-08-19 02:16:00,64.8,63.6,29.47,NE,53,0.0,1.0,96,0.00,,---,0.00,VWS V14.00,2013-08-19 07:16:00,
2013-08-19 02:21:00,64.9,63.8,29.47,NE,52,0.0,1.0,96,0.00,,---,0.00,VWS V14.00,2013-08-19 07:21:00,
2013-08-19 02:26:00,64.6,63.4,29.47,NE,53,0.0,1.0,96,0.00,,---,0.00,VWS V14.00,2013-08-19 07:26:00,
2013-08-19 02:31:00,64.6,63.4,29.47,NE,52,0.0,1.0,96,0.00,,---,0.00,VWS V14.00,2013-08-19 07:31:00,
2013-08-19 02:36:00,64.4,63.2,29.47,NE,53,0.0,1.0,96,0.00,,---,0.00,VWS V14.00,2013-08-19 07:36:00,
2013-08-19 02:41:00,64.4,63.2,29.47,NE,53,0.0,1.0,96,0.00,,---,0.00,VWS V14.00,2013-08-19 07:41:00,
2013-08-19 02:46:00,64.2,63.1,29.47,NE,53,0.0,1.0,96,0.00,,---,0.00,VWS V14.00,2013-08-19 07:46:00,
2013-08-19 02:51:00,64.2,63.1,29.47,NE,53,0.0,1.0,96,0.00,,---,0.00,VWS V14.00,2013-08-19 07:51:00,
2013-08-19 02:56:00,64.0,62.9,29.47,NE,53,0.0,1.0,96,0.00,,---,0.00,VWS V14.00,2013-08-19 07:56:00,
2013-08-19 03:01:00,64.0,62.9,29.47,NE,53,0.0,1.0,96,0.00,,---,0.00,VWS V14.00,2013-08-19 08:01:00,
2013-08-19 03:06:00,64.0,62.9,29.47,NE,53,0.0,1.0,96,0.00,,---,0.00,VWS V14.00,2013-08-19 08:06:00,
2013-08-19 03:11:00,63.9,63.0,29.47,NE,53,0.0,1.0,97,0.00,,---,0.00,VWS V14.00,2013-08-19 08:11:00,
2013-08-19 03:16:00,63.7,62.8,29.47,NE,53,0.0,1.0,97,0.00,,---,0.00,VWS V14.00,2013-08-19 08:16:00,
2013-08-19 03:21:00,63.7,62.8,29.47,NE,53,0.0,1.0,97,0.00,,---,0.00,VWS V14.00,2013-08-19 08:21:00,
2013-08-19 03:26:00,63.5,62.6,29.47,NE,53,0.0,1.0,97,0.00,,---,0.00,VWS V14.00,2013-08-19 08:26:00,
2013-08-19 03:31:00,63.5,62.6,29.47,NE,53,0.0,1.0,97,0.00,,---,0.00,VWS V14.00,2013-08-19 08:31:00,
2013-08-19 03:36:00,63.5,62.6,29.47,NE,53,0.0,1.0,97,0.00,,---,0.00,VWS V14.00,2013-08-19 08:36:00,
2013-08-19 03:41:00,63.5,62.6,29.47,NE,53,0.0,1.0,97,0.00,,---,0.00,VWS V14.00,2013-08-19 08:41:00,
2013-08-19 03:46:00,63.5,62.6,29.47,NE,53,0.0,1.0,97,0.00,,---,0.00,VWS V14.00,2013-08-19 08:46:00,
2013-08-19 03:51:00,63.3,62.5,29.47,NE,53,0.0,1.0,97,0.00,,---,0.00,VWS V14.00,2013-08-19 08:51:00,
2013-08-19 03:56:00,63.3,62.5,29.47,NE,53,0.0,1.0,97,0.00,,---,0.00,VWS V14.00,2013-08-19 08:56:00,
2013-08-19 04:01:00,63.5,62.6,29.47,NE,53,0.0,1.0,97,0.00,,---,0.00,VWS V14.00,2013-08-19 09:01:00,
2013-08-19 04:06:00,63.5,62.6,29.47,NE,53,0.0,1.0,97,0.00,,---,0.00,VWS V14.00,2013-08-19 09:06:00,
2013-08-19 04:11:00,63.5,62.6,29.47,NE,53,0.0,1.0,97,0.00,,---,0.00,VWS V14.00,2013-08-19 09:11:00,
2013-08-19 04:16:00,63.3,62.5,29.47,NE,53,0.0,1.0,97,0.00,,---,0.00,VWS V14.00,2013-08-19 09:16:00,
2013-08-19 04:21:00,63.0,62.1,29.47,SE,141,0.0,1.0,97,0.00,,---,0.00,VWS V14.00,2013-08-19 09:21:00,
2013-08-19 04:26:00,63.0,62.1,29.47,SE,141,0.0,1.0,97,0.00,,---,0.00,VWS V14.00,2013-08-19 09:26:00,
2013-08-19 04:31:00,63.0,62.1,29.47,SE,141,0.0,1.0,97,0.00,,---,0.00,VWS V14.00,2013-08-19 09:31:00,
2013-08-19 04:36:00,63.0,62.1,29.47,SE,141,0.0,1.0,97,0.00,,---,0.00,VWS V14.00,2013-08-19 09:36:00,
2013-08-19 04:41:00,63.0,62.1,29.47,SE,141,0.0,1.0,97,0.00,,---,0.00,VWS V14.00,2013-08-19 09:41:00,
2013-08-19 04:46:00,62.8,61.9,29.47,SE,140,0.0,1.0,97,0.00,,---,0.00,VWS V14.00,2013-08-19 09:46:00,
2013-08-19 04:51:00,62.8,62.2,29.47,SE,140,0.0,1.0,98,0.00,,---,0.00,VWS V14.00,2013-08-19 09:51:00,
2013-08-19 04:56:00,63.0,62.4,29.47,SE,141,0.0,1.0,98,0.00,,---,0.00,VWS V14.00,2013-08-19 09:56:00,
2013-08-19 05:01:00,63.0,62.4,29.47,SE,140,0.0,1.0,98,0.00,,---,0.00,VWS V14.00,2013-08-19 10:01:00,
2013-08-19 05:06:00,63.0,62.4,29.47,SE,140,0.0,1.0,98,0.00,,---,0.00,VWS V14.00,2013-08-19 10:06:00,
2013-08-19 05:11:00,63.0,62.4,29.47,SE,141,0.0,1.0,98,0.00,,---,0.00,VWS V14.00,2013-08-19 10:11:00,
2013-08-19 05:16:00,63.0,62.4,29.47,SE,141,0.0,1.0,98,0.00,,---,0.00,VWS V14.00,2013-08-19 10:16:00,
2013-08-19 05:21:00,62.8,62.2,29.47,SE,141,0.0,1.0,98,0.00,,---,0.00,VWS V14.00,2013-08-19 10:21:00,
2013-08-19 05:26:00,62.8,62.2,29.47,SE,141,0.0,1.0,98,0.00,,---,0.00,VWS V14.00,2013-08-19 10:26:00,
2013-08-19 05:31:00,62.8,62.2,29.47,SE,140,0.0,1.0,98,0.00,,---,0.00,VWS V14.00,2013-08-19 10:31:00,
2013-08-19 05:36:00,62.8,62.2,29.47,SE,141,0.0,1.0,98,0.00,,---,0.00,VWS V14.00,2013-08-19 10:36:00,
2013-08-19 05:41:00,62.8,62.2,29.47,SE,140,0.0,1.0,98,0.00,,---,0.00,VWS V14.00,2013-08-19 10:41:00,
2013-08-19 05:46:00,62.8,62.2,29.47,SE,141,0.0,1.0,98,0.00,,---,0.00,VWS V14.00,2013-08-19 10:46:00,
2013-08-19 05:51:00,62.8,62.2,29.47,SE,140,0.0,1.0,98,0.00,,---,0.00,VWS V14.00,2013-08-19 10:51:00,
2013-08-19 05:56:00,62.8,62.2,29.47,SE,141,0.0,1.0,98,0.00,,---,0.00,VWS V14.00,2013-08-19 10:56:00,
2013-08-19 06:01:00,62.8,62.2,29.47,SE,141,0.0,1.0,98,0.00,,---,0.00,VWS V14.00,2013-08-19 11:01:00,
2013-08-19 06:06:00,62.8,62.2,29.47,SE,140,0.0,1.0,98,0.00,,---,0.00,VWS V14.00,2013-08-19 11:06:00,
2013-08-19 06:11:00,62.8,62.2,29.47,SE,140,0.0,1.0,98,0.00,,---,0.00,VWS V14.00,2013-08-19 11:11:00,
2013-08-19 06:16:00,63.0,62.4,29.47,SE,140,0.0,1.0,98,0.00,,---,0.00,VWS V14.00,2013-08-19 11:16:00,
2013-08-19 06:21:00,63.0,62.4,29.47,SE,140,0.0,1.0,98,0.00,,---,0.00,VWS V14.00,2013-08-19 11:21:00,
2013-08-19 06:26:00,63.1,62.6,29.47,SE,140,0.0,1.0,98,0.00,,---,0.00,VWS V14.00,2013-08-19 11:26:00,
2013-08-19 06:31:00,63.1,62.6,29.47,SE,140,0.0,1.0,98,0.00,,---,0.00,VWS V14.00,2013-08-19 11:31:00,
2013-08-19 06:36:00,63.3,63.0,29.47,SE,140,0.0,1.0,99,0.00,,---,0.00,VWS V14.00,2013-08-19 11:36:00,
2013-08-19 06:41:00,63.5,63.2,29.47,SE,140,0.0,1.0,99,0.00,,---,0.00,VWS V14.00,2013-08-19 11:41:00,
2013-08-19 06:46:00,63.9,63.6,29.47,SE,140,0.0,1.0,99,0.00,,---,0.00,VWS V14.00,2013-08-19 11:46:00,
2013-08-19 06:51:00,64.0,63.8,29.50,SE,140,0.0,1.0,99,0.00,,---,0.00,VWS V14.00,2013-08-19 11:51:00,
2013-08-19 06:56:00,64.2,63.9,29.50,SE,140,0.0,1.0,99,0.00,,---,0.00,VWS V14.00,2013-08-19 11:56:00,
2013-08-19 07:01:00,64.6,64.3,29.50,SE,140,0.0,1.0,99,0.00,,---,0.00,VWS V14.00,2013-08-19 12:01:00,
2013-08-19 07:06:00,64.6,64.3,29.50,SE,140,0.0,1.0,99,0.00,,---,0.00,VWS V14.00,2013-08-19 12:06:00,
2013-08-19 07:11:00,64.8,64.5,29.50,SE,124,0.0,1.0,99,0.00,,---,0.00,VWS V14.00,2013-08-19 12:11:00,
2013-08-19 07:16:00,64.9,64.7,29.50,East,86,0.0,1.0,99,0.00,,---,0.00,VWS V14.00,2013-08-19 12:16:00,
2013-08-19 07:21:00,65.1,64.8,29.50,East,86,0.0,1.0,99,0.00,,---,0.00,VWS V14.00,2013-08-19 12:21:00,
2013-08-19 07:26:00,65.3,65.0,29.50,ENE,63,0.0,1.0,99,0.00,,---,0.00,VWS V14.00,2013-08-19 12:26:00,
2013-08-19 07:31:00,65.5,65.2,29.50,ENE,63,0.0,1.0,99,0.00,,---,0.00,VWS V14.00,2013-08-19 12:31:00,
2013-08-19 07:36:00,65.7,65.4,29.50,ENE,63,0.0,1.0,99,0.00,,---,0.00,VWS V14.00,2013-08-19 12:36:00,
2013-08-19 07:41:00,65.7,65.4,29.50,ENE,63,0.0,1.0,99,0.00,,---,0.00,VWS V14.00,2013-08-19 12:41:00,
2013-08-19 07:46:00,66.0,65.7,29.50,ENE,63,0.0,1.0,99,0.00,,---,0.00,VWS V14.00,2013-08-19 12:46:00,
2013-08-19 07:51:00,66.0,65.7,29.50,ENE,67,0.0,1.0,99,0.00,,---,0.00,VWS V14.00,2013-08-19 12:51:00,
2013-08-19 07:56:00,66.2,65.9,29.50,ENE,72,0.0,1.0,99,0.00,,---,0.00,VWS V14.00,2013-08-19 12:56:00,
2013-08-19 08:01:00,66.2,65.9,29.50,ENE,72,0.0,1.0,99,0.00,,---,0.00,VWS V14.00,2013-08-19 13:01:00,
2013-08-19 08:06:00,66.4,66.1,29.50,ENE,72,0.0,1.0,99,0.00,,---,0.00,VWS V14.00,2013-08-19 13:06:00,
2013-08-19 08:11:00,66.6,66.3,29.50,ENE,72,0.0,1.0,99,0.00,,---,0.00,VWS V14.00,2013-08-19 13:11:00,
2013-08-19 08:16:00,66.7,66.4,29.50,ENE,72,0.0,1.0,99,0.00,,---,0.00,VWS V14.00,2013-08-19 13:16:00,
2013-08-19 08:21:00,66.9,66.6,29.50,ENE,72,0.0,1.0,99,0.00,,---,0.00,VWS V14.00,2013-08-19 13:21:00,
2013-08-19 08:26:00,66.9,66.6,29.50,ENE,72,0.0,1.0,99,0.00,,---,0.00,VWS V14.00,2013-08-19 13:26:00,
2013-08-19 08:31:00,67.1,66.8,29.50,ENE,72,0.0,1.0,99,0.00,,---,0.00,VWS V14.00,2013-08-19 13:31:00,
2013-08-19 08:36:00,67.3,67.3,29.50,North,10,0.0,1.0,100,0.00,,---,0.00,VWS V14.00,2013-08-19 13:36:00,
2013-08-19 08:41:00,67.6,67.6,29.50,North,8,0.0,1.0,100,0.00,,---,0.00,VWS V14.00,2013-08-19 13:41:00,
2013-08-19 08:46:00,67.6,67.6,29.50,North,357,0.0,1.0,100,0.00,,---,0.00,VWS V14.00,2013-08-19 13:46:00,
2013-08-19 08:51:00,68.0,67.7,29.50,North,357,0.0,1.0,99,0.00,,---,0.00,VWS V14.00,2013-08-19 13:51:00,
2013-08-19 08:56:00,68.0,67.7,29.50,NNE,25,0.0,1.0,99,0.00,,---,0.00,VWS V14.00,2013-08-19 13:56:00,
2013-08-19 09:01:00,68.0,67.7,29.50,NNE,25,0.0,1.0,99,0.00,,---,0.00,VWS V14.00,2013-08-19 14:01:00,
2013-08-19 09:06:00,68.2,67.9,29.50,North,6,0.0,1.0,99,0.00,,---,0.00,VWS V14.00,2013-08-19 14:06:00,
2013-08-19 09:11:00,68.4,68.4,29.50,NE,56,0.0,1.0,100,0.00,,---,0.00,VWS V14.00,2013-08-19 14:11:00,
2013-08-19 09:16:00,68.5,68.5,29.50,NNE,23,0.0,1.0,100,0.00,,---,0.00,VWS V14.00,2013-08-19 14:16:00,
2013-08-19 09:21:00,68.7,68.7,29.50,ESE,104,0.0,1.0,100,0.00,,---,0.00,VWS V14.00,2013-08-19 14:21:00,
2013-08-19 09:26:00,68.7,68.7,29.50,SSE,154,4.7,6.6,100,0.00,,---,0.00,VWS V14.00,2013-08-19 14:26:00,
2013-08-19 09:31:00,68.7,68.7,29.50,ENE,76,4.7,6.6,100,0.00,,---,0.00,VWS V14.00,2013-08-19 14:31:00,
2013-08-19 09:36:00,68.9,68.9,29.50,ENE,75,0.0,5.8,100,0.00,,---,0.00,VWS V14.00,2013-08-19 14:36:00,
2013-08-19 09:41:00,68.9,68.9,29.50,ENE,75,0.0,1.0,100,0.00,,---,0.00,VWS V14.00,2013-08-19 14:41:00,
2013-08-19 09:46:00,69.3,69.3,29.50,SSE,163,5.4,7.4,100,0.00,,---,0.00,VWS V14.00,2013-08-19 14:46:00,
2013-08-19 09:51:00,69.4,69.4,29.50,ESE,104,0.0,1.0,100,0.00,,---,0.00,VWS V14.00,2013-08-19 14:51:00,
2013-08-19 09:56:00,69.3,69.3,29.50,East,96,0.0,1.0,100,0.00,,---,0.00,VWS V14.00,2013-08-19 14:56:00,
2013-08-19 10:01:00,69.4,69.4,29.50,NE,56,0.0,1.0,100,0.00,,---,0.00,VWS V14.00,2013-08-19 15:01:00,
2013-08-19 10:06:00,69.6,69.6,29.50,East,96,0.0,1.0,100,0.00,,---,0.00,VWS V14.00,2013-08-19 15:06:00,
2013-08-19 10:11:00,69.6,69.6,29.50,ENE,76,0.0,1.0,100,0.00,,---,0.00,VWS V14.00,2013-08-19 15:11:00,
2013-08-19 10:16:00,69.6,69.6,29.50,ENE,77,0.0,1.0,100,0.00,,---,0.00,VWS V14.00,2013-08-19 15:16:00,
2013-08-19 10:21:00,69.8,69.8,29.50,NE,35,0.0,1.0,100,0.00,,---,0.00,VWS V14.00,2013-08-19 15:21:00,
2013-08-19 10:26:00,69.8,69.8,29.50,East,80,0.0,1.0,100,0.00,,---,0.00,VWS V14.00,2013-08-19 15:26:00,
2013-08-19 10:31:00,70.3,70.3,29.50,NNE,24,0.0,1.0,100,0.00,,---,0.00,VWS V14.00,2013-08-19 15:31:00,
2013-08-19 10:36:00,70.3,70.3,29.53,SSE,151,0.0,1.0,100,0.00,,---,0.00,VWS V14.00,2013-08-19 15:36:00,
2013-08-19 10:41:00,70.5,70.5,29.53,ENE,68,3.4,5.0,100,0.00,,---,0.00,VWS V14.00,2013-08-19 15:41:00,
2013-08-19 10:46:00,70.7,70.7,29.53,ENE,60,0.0,1.0,100,0.00,,---,0.00,VWS V14.00,2013-08-19 15:46:00,
2013-08-19 10:51:00,70.7,70.7,29.53,ESE,115,0.0,6.6,100,0.00,,---,0.00,VWS V14.00,2013-08-19 15:51:00,
2013-08-19 10:56:00,71.1,71.1,29.50,East,97,0.0,1.0,100,0.00,,---,0.00,VWS V14.00,2013-08-19 15:56:00,
2013-08-19 11:01:00,71.1,71.1,29.50,ESE,102,0.0,1.0,100,0.00,,---,0.00,VWS V14.00,2013-08-19 16:01:00,
2013-08-19 11:06:00,71.6,71.6,29.50,NNE,31,0.0,1.0,100,0.00,,---,0.00,VWS V14.00,2013-08-19 16:06:00,
2013-08-19 11:11:00,71.8,71.8,29.50,NNE,31,0.0,1.0,100,0.00,,---,0.00,VWS V14.00,2013-08-19 16:11:00,
2013-08-19 11:16:00,72.3,72.3,29.50,ESE,115,4.0,5.8,100,0.00,,---,0.00,VWS V14.00,2013-08-19 16:16:00,
2013-08-19 11:21:00,72.7,72.7,29.50,NE,43,3.4,5.0,100,0.00,,---,0.00,VWS V14.00,2013-08-19 16:21:00,
2013-08-19 11:26:00,73.0,73.1,29.50,SE,137,0.0,1.0,100,0.00,,---,0.00,VWS V14.00,2013-08-19 16:26:00,
2013-08-19 11:31:00,73.2,73.2,29.50,NE,55,3.4,5.0,100,0.00,,---,0.00,VWS V14.00,2013-08-19 16:31:00,
2013-08-19 11:36:00,73.8,73.8,29.50,ENE,75,4.7,6.6,100,0.00,,---,0.00,VWS V14.00,2013-08-19 16:36:00,
2013-08-19 11:41:00,74.5,74.5,29.50,SE,136,3.4,5.0,100,0.00,,---,0.00,VWS V14.00,2013-08-19 16:41:00,
2013-08-19 11:46:00,74.8,74.8,29.50,SE,146,7.4,9.9,100,0.00,,---,0.00,VWS V14.00,2013-08-19 16:46:00,
2013-08-19 11:51:00,75.2,74.9,29.50,ENE,69,4.0,5.8,99,0.00,,---,0.00,VWS V14.00,2013-08-19 16:51:00,
2013-08-19 11:56:00,75.2,74.9,29.50,ESE,102,0.0,1.0,99,0.00,,---,0.00,VWS V14.00,2013-08-19 16:56:00,
2013-08-19 12:01:00,75.6,75.3,29.50,North,6,3.4,5.0,99,0.00,,---,0.00,VWS V14.00,2013-08-19 17:01:00,
2013-08-19 12:06:00,75.7,75.4,29.50,NNE,12,0.0,1.0,99,0.00,,---,0.00,VWS V14.00,2013-08-19 17:06:00,
2013-08-19 12:11:00,76.3,76.0,29.50,East,84,6.7,9.1,99,0.00,,---,0.00,VWS V14.00,2013-08-19 17:11:00,
2013-08-19 12:16:00,76.3,75.7,29.50,East,81,4.0,5.8,98,0.00,,---,0.00,VWS V14.00,2013-08-19 17:16:00,
2013-08-19 12:21:00,76.6,75.7,29.50,East,79,0.0,1.0,97,0.00,,---,0.00,VWS V14.00,2013-08-19 17:21:00,
2013-08-19 12:26:00,76.8,74.7,29.50,East,101,5.4,7.4,93,0.00,,---,0.00,VWS V14.00,2013-08-19 17:26:00,
2013-08-19 12:31:00,77.0,73.5,29.50,East,89,4.0,5.8,89,0.00,,---,0.00,VWS V14.00,2013-08-19 17:31:00,
2013-08-19 12:36:00,77.2,71.3,29.50,NNE,21,8.1,10.7,82,0.00,,---,0.00,VWS V14.00,2013-08-19 17:36:00,
2013-08-19 12:41:00,77.7,70.3,29.50,North,357,6.0,8.2,78,0.00,,---,0.00,VWS V14.00,2013-08-19 17:41:00,
2013-08-19 12:46:00,78.4,69.1,29.50,ENE,77,4.7,6.6,73,0.00,,---,0.00,VWS V14.00,2013-08-19 17:46:00,
2013-08-19 12:51:00,78.8,67.4,29.50,NE,38,8.1,10.7,68,0.00,,---,0.00,VWS V14.00,2013-08-19 17:51:00,
2013-08-19 12:56:00,79.0,67.1,29.47,NNE,23,7.4,9.9,67,0.00,,---,0.00,VWS V14.00,2013-08-19 17:56:00,
2013-08-19 13:01:00,79.0,65.3,29.47,NNE,23,7.4,9.9,63,0.00,,---,0.00,VWS V14.00,2013-08-19 18:01:00,
2013-08-19 13:06:00,78.4,66.2,29.47,NE,50,4.0,5.8,66,0.00,,---,0.00,VWS V14.00,2013-08-19 18:06:00,
2013-08-19 13:11:00,78.1,65.8,29.47,ENE,68,4.0,5.8,66,0.00,,---,0.00,VWS V14.00,2013-08-19 18:11:00,
2013-08-19 13:16:00,78.1,65.8,29.47,ENE,68,4.0,5.8,66,0.00,,---,0.00,VWS V14.00,2013-08-19 18:16:00,
2013-08-19 13:21:00,78.6,65.9,29.47,NE,54,0.0,7.4,65,0.00,,---,0.00,VWS V14.00,2013-08-19 18:21:00,
2013-08-19 13:26:00,79.5,66.7,29.47,NE,54,0.0,1.0,65,0.00,,---,0.00,VWS V14.00,2013-08-19 18:26:00,
2013-08-19 13:31:00,80.1,66.3,29.47,East,81,6.0,8.2,63,0.00,,---,0.00,VWS V14.00,2013-08-19 18:31:00,
2013-08-19 13:36:00,80.8,67.0,29.47,East,87,3.4,5.0,63,0.00,,---,0.00,VWS V14.00,2013-08-19 18:36:00,
2013-08-19 13:41:00,81.1,66.4,29.47,SE,141,7.4,9.9,61,0.00,,---,0.00,VWS V14.00,2013-08-19 18:41:00,
2013-08-19 13:46:00,81.3,66.6,29.47,ESE,122,7.4,9.9,61,0.00,,---,0.00,VWS V14.00,2013-08-19 18:46:00,
2013-08-19 13:51:00,80.8,65.6,29.47,East,95,5.4,7.4,60,0.00,,---,0.00,VWS V14.00,2013-08-19 18:51:00,
2013-08-19 13:56:00,80.1,65.4,29.47,East,95,5.4,7.4,61,0.00,,---,0.00,VWS V14.00,2013-08-19 18:56:00,
2013-08-19 14:01:00,80.1,65.4,29.47,ENE,57,0.0,6.6,61,0.00,,---,0.00,VWS V14.00,2013-08-19 19:01:00,
2013-08-19 14:06:00,80.4,65.8,29.47,ENE,57,0.0,1.0,61,0.00,,---,0.00,VWS V14.00,2013-08-19 19:06:00,
2013-08-19 14:11:00,80.6,64.5,29.47,North,2,5.4,7.4,58,0.00,,---,0.00,VWS V14.00,2013-08-19 19:11:00,
2013-08-19 14:16:00,80.6,65.9,29.47,ENE,76,4.0,5.8,61,0.00,,---,0.00,VWS V14.00,2013-08-19 19:16:00,
2013-08-19 14:21:00,81.0,66.3,29.47,ENE,76,4.0,5.8,61,0.00,,---,0.00,VWS V14.00,2013-08-19 19:21:00,
2013-08-19 14:26:00,81.0,65.3,29.47,South,179,4.7,6.6,59,0.00,,---,0.00,VWS V14.00,2013-08-19 19:26:00,
2013-08-19 14:31:00,81.3,64.7,29.47,East,92,9.4,12.3,57,0.00,,---,0.00,VWS V14.00,2013-08-19 19:31:00,
2013-08-19 14:36:00,81.3,64.7,29.47,East,85,4.0,5.8,57,0.00,,---,0.00,VWS V14.00,2013-08-19 19:36:00,
2013-08-19 14:41:00,81.5,64.3,29.47,NE,53,0.0,10.7,56,0.00,,---,0.00,VWS V14.00,2013-08-19 19:41:00,
2013-08-19 14:46:00,81.5,64.8,29.47,SE,141,4.0,5.8,57,0.00,,---,0.00,VWS V14.00,2013-08-19 19:46:00,
2013-08-19 14:51:00,81.7,64.5,29.47,East,90,5.4,7.4,56,0.00,,---,0.00,VWS V14.00,2013-08-19 19:51:00,
2013-08-19 14:56:00,81.7,65.5,29.44,East,90,0.0,1.0,58,0.00,,---,0.00,VWS V14.00,2013-08-19 19:56:00,
2013-08-19 15:01:00,81.5,64.8,29.44,ENE,70,3.4,5.0,57,0.00,,---,0.00,VWS V14.00,2013-08-19 20:01:00,
2013-08-19 15:06:00,81.5,64.3,29.44,SE,129,8.1,10.7,56,0.00,,---,0.00,VWS V14.00,2013-08-19 20:06:00,
2013-08-19 15:11:00,81.0,65.3,29.44,SE,143,4.0,5.8,59,0.00,,---,0.00,VWS V14.00,2013-08-19 20:11:00,
2013-08-19 15:16:00,81.0,65.3,29.44,SSE,147,3.4,5.8,59,0.00,,---,0.00,VWS V14.00,2013-08-19 20:16:00,
2013-08-19 15:21:00,80.8,65.1,29.44,ENE,75,7.4,9.9,59,0.00,,---,0.00,VWS V14.00,2013-08-19 20:21:00,
2013-08-19 15:26:00,80.2,65.1,29.44,SE,135,4.0,7.4,60,0.00,,---,0.00,VWS V14.00,2013-08-19 20:26:00,
2013-08-19 15:31:00,79.9,65.2,29.44,ENE,75,6.0,8.2,61,0.00,,---,0.00,VWS V14.00,2013-08-19 20:31:00,
2013-08-19 15:36:00,79.5,65.4,29.44,SSE,155,4.7,6.6,62,0.00,,---,0.00,VWS V14.00,2013-08-19 20:36:00,
2013-08-19 15:41:00,79.3,66.1,29.44,SSE,148,8.1,10.7,64,0.00,,---,0.00,VWS V14.00,2013-08-19 20:41:00,
2013-08-19 15:46:00,79.2,65.9,29.44,ESE,122,3.4,5.8,64,0.00,,---,0.00,VWS V14.00,2013-08-19 20:46:00,
2013-08-19 15:51:00,79.3,66.6,29.44,SSE,150,0.0,1.0,65,0.00,,---,0.00,VWS V14.00,2013-08-19 20:51:00,
2013-08-19 15:56:00,79.5,66.3,29.44,ENE,78,3.4,7.4,64,0.00,,---,0.00,VWS V14.00,2013-08-19 20:56:00,
2013-08-19 16:01:00,79.7,66.0,29.44,NE,46,3.4,6.6,63,0.00,,---,0.00,VWS V14.00,2013-08-19 21:01:00,
2013-08-19 16:06:00,79.7,66.0,29.44,NE,56,0.0,5.0,63,0.00,,---,0.00,VWS V14.00,2013-08-19 21:06:00,
2013-08-19 16:11:00,79.9,65.2,29.44,NE,39,0.0,6.6,61,0.00,,---,0.00,VWS V14.00,2013-08-19 21:11:00,
2013-08-19 16:16:00,80.2,65.6,29.44,ENE,74,6.0,8.2,61,0.00,,---,0.00,VWS V14.00,2013-08-19 21:16:00,
2013-08-19 16:21:00,80.2,65.1,29.44,ENE,75,4.0,6.6,60,0.00,,---,0.00,VWS V14.00,2013-08-19 21:21:00,
2013-08-19 16:26:00,80.2,64.6,29.44,NE,45,0.0,1.0,59,0.00,,---,0.00,VWS V14.00,2013-08-19 21:26:00,
2013-08-19 16:31:00,80.2,65.1,29.44,NE,45,0.0,1.0,60,0.00,,---,0.00,VWS V14.00,2013-08-19 21:31:00,
2013-08-19 16:36:00,80.6,64.5,29.44,ENE,73,0.0,1.0,58,0.00,,---,0.00,VWS V14.00,2013-08-19 21:36:00,
2013-08-19 16:41:00,81.0,65.3,29.44,NNE,33,4.0,6.6,59,0.00,,---,0.00,VWS V14.00,2013-08-19 21:41:00,
2013-08-19 16:46:00,81.1,64.0,29.44,NE,38,4.7,7.4,56,0.00,,---,0.00,VWS V14.00,2013-08-19 21:46:00,
2013-08-19 16:52:00,81.1,64.0,29.44,NNE,24,6.0,8.2,56,0.00,,---,0.00,VWS V14.00,2013-08-19 21:52:00,
2013-08-19 16:57:00,81.0,63.8,29.44,ENE,72,0.0,7.4,56,0.00,,---,0.00,VWS V14.00,2013-08-19 21:57:00,
2013-08-19 17:02:00,81.0,64.3,29.44,ENE,66,0.0,5.0,57,0.00,,---,0.00,VWS V14.00,2013-08-19 22:02:00,
2013-08-19 17:07:00,81.0,64.3,29.44,North,6,4.7,7.4,57,0.00,,---,0.00,VWS V14.00,2013-08-19 22:07:00,
2013-08-19 17:12:00,79.9,64.8,29.44,North,0,5.4,7.4,60,0.00,,---,0.00,VWS V14.00,2013-08-19 22:12:00,
2013-08-19 17:17:00,79.3,65.2,29.44,North,4,4.0,8.2,62,0.00,,---,0.00,VWS V14.00,2013-08-19 22:17:00,
2013-08-19 17:22:00,79.3,65.2,29.44,North,1,5.4,7.4,62,0.00,,---,0.00,VWS V14.00,2013-08-19 22:22:00,
2013-08-19 17:27:00,79.2,65.9,29.44,North,357,5.4,7.4,64,0.00,,---,0.00,VWS V14.00,2013-08-19 22:27:00,
2013-08-19 17:32:00,79.2,66.4,29.44,North,10,3.4,7.4,65,0.00,,---,0.00,VWS V14.00,2013-08-19 22:32:00,
2013-08-19 17:37:00,79.2,66.4,29.44,North,10,0.0,5.8,65,0.00,,---,0.00,VWS V14.00,2013-08-19 22:37:00,
2013-08-19 17:42:00,79.3,66.6,29.44,North,9,5.4,7.4,65,0.00,,---,0.00,VWS V14.00,2013-08-19 22:42:00,
2013-08-19 17:47:00,79.3,66.6,29.44,NNE,15,0.0,1.0,65,0.00,,---,0.00,VWS V14.00,2013-08-19 22:47:00,
2013-08-19 17:52:00,79.5,67.2,29.44,NNE,21,4.0,7.4,66,0.00,,---,0.00,VWS V14.00,2013-08-19 22:52:00,
2013-08-19 17:57:00,79.3,66.6,29.44,NNE,30,0.0,5.8,65,0.00,,---,0.00,VWS V14.00,2013-08-19 22:57:00,
2013-08-19 18:02:00,78.6,66.3,29.44,NNE,30,0.0,1.0,66,0.00,,---,0.00,VWS V14.00,2013-08-19 23:02:00,
2013-08-19 18:07:00,78.1,66.2,29.44,NNE,30,0.0,1.0,67,0.00,,---,0.00,VWS V14.00,2013-08-19 23:07:00,
2013-08-19 18:12:00,77.4,66.4,29.44,NNE,30,0.0,1.0,69,0.00,,---,0.00,VWS V14.00,2013-08-19 23:12:00,
2013-08-19 18:17:00,77.2,66.7,29.44,NNE,30,0.0,1.0,70,0.00,,---,0.00,VWS V14.00,2013-08-19 23:17:00,
2013-08-19 18:22:00,76.8,66.7,29.44,NNE,30,0.0,1.0,71,0.00,,---,0.00,VWS V14.00,2013-08-19 23:22:00,
2013-08-19 18:27:00,76.8,67.1,29.44,NNE,30,0.0,1.0,72,0.00,,---,0.00,VWS V14.00,2013-08-19 23:27:00,
2013-08-19 18:32:00,77.0,67.3,29.41,North,4,4.0,5.8,72,0.00,,---,0.00,VWS V14.00,2013-08-19 23:32:00,
2013-08-19 18:37:00,77.2,67.9,29.41,North,4,0.0,1.0,73,0.00,,---,0.00,VWS V14.00,2013-08-19 23:37:00,
2013-08-19 18:42:00,77.7,68.4,29.41,North,4,0.0,1.0,73,0.00,,---,0.00,VWS V14.00,2013-08-19 23:42:00,
2013-08-19 18:47:00,77.5,68.2,29.41,North,4,0.0,1.0,73,0.00,,---,0.00,VWS V14.00,2013-08-19 23:47:00,
2013-08-19 18:52:00,77.5,68.2,29.41,North,4,0.0,1.0,73,0.00,,---,0.00,VWS V14.00,2013-08-19 23:52:00,
2013-08-19 18:57:00,77.4,68.0,29.41,North,4,0.0,1.0,73,0.00,,---,0.00,VWS V14.00,2013-08-19 23:57:00,
2013-08-19 19:02:00,77.2,67.9,29.41,North,4,0.0,1.0,73,0.00,,---,0.00,VWS V14.00,2013-08-20 00:02:00,
2013-08-19 19:07:00,76.6,67.7,29.41,North,4,0.0,1.0,74,0.00,,---,0.00,VWS V14.00,2013-08-20 00:07:00,
2013-08-19 19:12:00,76.5,67.9,29.41,North,4,0.0,1.0,75,0.00,,---,0.00,VWS V14.00,2013-08-20 00:12:00,
2013-08-19 19:17:00,76.1,68.0,29.41,North,4,0.0,1.0,76,0.00,,---,0.00,VWS V14.00,2013-08-20 00:17:00,
2013-08-19 19:22:00,75.9,67.8,29.41,North,4,0.0,1.0,76,0.00,,---,0.00,VWS V14.00,2013-08-20 00:22:00,
2013-08-19 19:27:00,75.2,67.5,29.41,North,4,0.0,1.0,77,0.00,,---,0.00,VWS V14.00,2013-08-20 00:27:00,
2013-08-19 19:32:00,74.8,67.5,29.41,North,4,0.0,1.0,78,0.00,,---,0.00,VWS V14.00,2013-08-20 00:32:00,
2013-08-19 19:37:00,74.3,67.4,29.41,North,4,0.0,1.0,79,0.00,,---,0.00,VWS V14.00,2013-08-20 00:37:00,
2013-08-19 19:42:00,74.1,67.2,29.41,North,4,0.0,1.0,79,0.00,,---,0.00,VWS V14.00,2013-08-20 00:42:00,
2013-08-19 19:47:00,73.8,66.8,29.41,North,4,0.0,1.0,79,0.00,,---,0.00,VWS V14.00,2013-08-20 00:47:00,
2013-08-19 19:52:00,73.6,67.0,29.41,North,4,0.0,1.0,80,0.00,,---,0.00,VWS V14.00,2013-08-20 00:52:00,
2013-08-19 19:57:00,73.2,67.1,29.41,North,4,0.0,1.0,81,0.00,,---,0.00,VWS V14.00,2013-08-20 00:57:00,
2013-08-19 20:02:00,72.9,66.7,29.41,North,4,0.0,1.0,81,0.00,,---,0.00,VWS V14.00,2013-08-20 01:02:00,
2013-08-19 20:07:00,72.7,66.9,29.41,North,4,0.0,1.0,82,0.00,,---,0.00,VWS V14.00,2013-08-20 01:07:00,
2013-08-19 20:12:00,72.5,66.7,29.41,North,4,0.0,1.0,82,0.00,,---,0.00,VWS V14.00,2013-08-20 01:12:00,
2013-08-19 20:17:00,72.3,66.5,29.41,North,4,0.0,1.0,82,0.00,,---,0.00,VWS V14.00,2013-08-20 01:17:00,
2013-08-19 20:22:00,72.3,66.5,29.44,North,4,0.0,1.0,82,0.00,,---,0.00,VWS V14.00,2013-08-20 01:22:00,
2013-08-19 20:27:00,72.1,66.7,29.44,North,4,0.0,1.0,83,0.00,,---,0.00,VWS V14.00,2013-08-20 01:27:00,
2013-08-19 20:32:00,72.0,66.5,29.44,North,4,0.0,1.0,83,0.00,,---,0.00,VWS V14.00,2013-08-20 01:32:00,
2013-08-19 20:37:00,72.0,66.5,29.44,North,4,0.0,1.0,83,0.00,,---,0.00,VWS V14.00,2013-08-20 01:37:00,
2013-08-19 20:42:00,71.8,66.3,29.44,North,4,0.0,1.0,83,0.00,,---,0.00,VWS V14.00,2013-08-20 01:42:00,
2013-08-19 20:47:00,71.8,66.7,29.44,North,4,0.0,1.0,84,0.00,,---,0.00,VWS V14.00,2013-08-20 01:47:00,
2013-08-19 20:52:00,71.6,66.5,29.44,North,4,0.0,1.0,84,0.00,,---,0.00,VWS V14.00,2013-08-20 01:52:00,
2013-08-19 20:57:00,71.4,66.7,29.44,North,4,0.0,1.0,85,0.00,,---,0.00,VWS V14.00,2013-08-20 01:57:00,
2013-08-19 21:02:00,71.2,66.5,29.44,North,4,0.0,1.0,85,0.00,,---,0.00,VWS V14.00,2013-08-20 02:02:00,
2013-08-19 21:07:00,71.1,66.3,29.44,North,4,0.0,1.0,85,0.00,,---,0.00,VWS V14.00,2013-08-20 02:07:00,
2013-08-19 21:12:00,71.1,66.7,29.44,North,4,0.0,1.0,86,0.00,,---,0.00,VWS V14.00,2013-08-20 02:12:00,
2013-08-19 21:17:00,70.9,66.5,29.44,North,4,0.0,1.0,86,0.00,,---,0.00,VWS V14.00,2013-08-20 02:17:00,
2013-08-19 21:22:00,70.9,66.5,29.44,North,4,0.0,1.0,86,0.00,,---,0.00,VWS V14.00,2013-08-20 02:22:00,
2013-08-19 21:27:00,70.7,66.7,29.44,North,4,0.0,1.0,87,0.00,,---,0.00,VWS V14.00,2013-08-20 02:27:00,
2013-08-19 21:32:00,70.3,66.3,29.44,North,4,0.0,1.0,87,0.00,,---,0.00,VWS V14.00,2013-08-20 02:32:00,
2013-08-19 21:37:00,70.3,66.3,29.44,North,4,0.0,1.0,87,0.00,,---,0.00,VWS V14.00,2013-08-20 02:37:00,
2013-08-19 21:42:00,70.2,66.1,29.44,North,4,0.0,1.0,87,0.00,,---,0.00,VWS V14.00,2013-08-20 02:42:00,
2013-08-19 21:47:00,70.0,65.9,29.44,North,4,0.0,1.0,87,0.00,,---,0.00,VWS V14.00,2013-08-20 02:47:00,
2013-08-19 21:52:00,70.0,66.3,29.44,North,4,0.0,1.0,88,0.00,,---,0.00,VWS V14.00,2013-08-20 02:52:00,
2013-08-19 21:57:00,70.0,66.3,29.44,North,4,0.0,1.0,88,0.00,,---,0.00,VWS V14.00,2013-08-20 02:57:00,
2013-08-19 22:02:00,69.6,65.9,29.44,North,4,0.0,1.0,88,0.00,,---,0.00,VWS V14.00,2013-08-20 03:02:00,
2013-08-19 22:07:00,69.8,66.1,29.44,North,4,0.0,1.0,88,0.00,,---,0.00,VWS V14.00,2013-08-20 03:07:00,
2013-08-19 22:12:00,69.6,66.2,29.44,North,4,0.0,1.0,89,0.00,,---,0.00,VWS V14.00,2013-08-20 03:12:00,
2013-08-19 22:17:00,69.6,66.2,29.44,North,4,0.0,1.0,89,0.00,,---,0.00,VWS V14.00,2013-08-20 03:17:00,
2013-08-19 22:22:00,69.6,66.2,29.44,North,4,0.0,1.0,89,0.00,,---,0.00,VWS V14.00,2013-08-20 03:22:00,
2013-08-19 22:27:00,69.4,66.1,29.44,North,4,0.0,1.0,89,0.00,,---,0.00,VWS V14.00,2013-08-20 03:27:00,
2013-08-19 22:32:00,69.3,65.9,29.44,North,4,0.0,1.0,89,0.00,,---,0.00,VWS V14.00,2013-08-20 03:32:00,
2013-08-19 22:37:00,69.3,65.9,29.44,North,4,0.0,1.0,89,0.00,,---,0.00,VWS V14.00,2013-08-20 03:37:00,
2013-08-19 22:42:00,69.1,66.0,29.44,North,4,0.0,1.0,90,0.00,,---,0.00,VWS V14.00,2013-08-20 03:42:00,
2013-08-19 22:47:00,69.1,66.0,29.44,North,4,0.0,1.0,90,0.00,,---,0.00,VWS V14.00,2013-08-20 03:47:00,
2013-08-19 22:52:00,69.1,66.0,29.44,North,4,0.0,1.0,90,0.00,,---,0.00,VWS V14.00,2013-08-20 03:52:00,
2013-08-19 22:57:00,68.9,65.8,29.44,North,4,0.0,1.0,90,0.00,,---,0.00,VWS V14.00,2013-08-20 03:57:00,
2013-08-19 23:01:00,68.7,65.7,29.44,North,4,0.0,1.0,90,0.00,,---,0.00,VWS V14.00,2013-08-20 04:01:00,
2013-08-19 23:06:00,68.7,65.7,29.44,North,4,0.0,1.0,90,0.00,,---,0.00,VWS V14.00,2013-08-20 04:06:00,
2013-08-19 23:11:00,68.7,65.7,29.44,North,4,0.0,1.0,90,0.00,,---,0.00,VWS V14.00,2013-08-20 04:11:00,
2013-08-19 23:16:00,68.5,65.5,29.44,North,4,0.0,1.0,90,0.00,,---,0.00,VWS V14.00,2013-08-20 04:16:00,
2013-08-19 23:21:00,68.4,65.3,29.44,North,4,0.0,1.0,90,0.00,,---,0.00,VWS V14.00,2013-08-20 04:21:00,
2013-08-19 23:26:00,68.4,65.6,29.44,North,4,0.0,1.0,91,0.00,,---,0.00,VWS V14.00,2013-08-20 04:26:00,
2013-08-19 23:31:00,68.4,65.6,29.44,North,4,0.0,1.0,91,0.00,,---,0.00,VWS V14.00,2013-08-20 04:31:00,
2013-08-19 23:36:00,68.4,65.6,29.44,North,4,0.0,1.0,91,0.00,,---,0.00,VWS V14.00,2013-08-20 04:36:00,
2013-08-19 23:41:00,68.4,65.6,29.44,North,4,0.0,1.0,91,0.00,,---,0.00,VWS V14.00,2013-08-20 04:41:00,
2013-08-19 23:46:00,68.4,65.6,29.44,North,4,0.0,1.0,91,0.00,,---,0.00,VWS V14.00,2013-08-20 04:46:00,
2013-08-19 23:51:00,68.4,65.6,29.44,North,4,0.0,1.0,91,0.00,,---,0.00,VWS V14.00,2013-08-20 04:51:00,
2013-08-19 23:56:00,68.4,65.6,29.44,North,4,0.0,1.0,91,0.00,,---,0.00,VWS V14.00,2013-08-20 04:56:00,